Flag for Germany Weather past 2 weeks in Seevetal, Lower Saxony, Germany

Now
54 °F

Passing clouds.


Feels Like: 49 °F
Forecast: 41 / 60 °F
Wind: 15 mph from West

Location: Hamburg-Finkenwerder

Current Time: May 28, 2015 at 10:41:03 PM

Latest Report: May 28, 2015 at 8:50 PM


Visibility: N/A

Pressure: 29.86 "Hg

Humidity: 72%

Dew point: 45 °F

Location of SeevetalLocation

Historic Weather in Seevetal — Graph

°F

Seevetal temperature yesterday

Maximum temperature yesterday: 59 °F (at 2:20 PM)
Minimum temperature yesterday: 48 °F (at 6:20 AM)
Average temperature yesterday: 55 °F

Past Weeks' High & Low Weather Summary

 TemperatureHumidityPressure
High66 °F (May 22, 2:20 PM)100% (May 16, 5:20 PM)30.30 "Hg (May 16, 5:20 PM)
Low43 °F (May 21, 6:20 AM)45% (May 19, 3:20 PM)29.59 "Hg (May 19, 6:20 AM)
Average54 °F72%30.00 "Hg
* Reported May 13 8:20 PM — May 28 8:50 PM, Seevetal, Weather by CustomWeather, © 2015

Note: Actual official high and low records may vary slightly from our data, if they occured in-between our weather recording intervals... More about our weather records

Advertising

Seevetal weather history for previous 24 hours

 ConditionsComfort  
Time TempWeatherWind HumidityBarometerVisibility
8:50 PM
Thu, May 28
54 °FPassing clouds.15 mph72%29.86 "HgN/A
8:20 PM54 °FPassing clouds.16 mph72%29.86 "HgN/A
7:50 PM55 °FScattered clouds.20 mph67%29.86 "HgN/A
7:20 PM54 °FScattered clouds.8 mph88%29.86 "HgN/A
6:50 PM54 °FSprinkles. Broken clouds.7 mph100%29.86 "HgN/A
6:20 PM54 °FPartly sunny.8 mph100%29.86 "HgN/A
5:50 PM54 °FScattered showers. Broken clouds.7 mph100%29.86 "HgN/A
5:20 PM54 °FLight rain. Broken clouds.8 mph100%29.83 "HgN/A
4:50 PM54 °FLight rain. Broken clouds.8 mph100%29.86 "HgN/A
4:20 PM54 °FSprinkles. Broken clouds.8 mph100%29.86 "Hg6 mi
3:50 PM54 °FScattered showers. Partly sunny.7 mph100%29.83 "HgN/A
3:20 PM54 °FSprinkles. Broken clouds.10 mph100%29.83 "Hg6 mi
2:50 PM54 °FThundershowers. Partly sunny.18 mph94%29.83 "HgN/A
2:20 PM59 °FScattered showers. Partly sunny.14 mph82%29.80 "HgN/A
1:50 PM57 °FPartly sunny.13 mph94%29.80 "HgN/A
1:20 PM57 °FSprinkles. Partly sunny.14 mph88%29.83 "Hg4 mi
12:50 PM59 °FScattered showers. Partly sunny.12 mph77%29.80 "HgN/A
12:20 PM57 °FSprinkles. Partly sunny.15 mph82%29.83 "Hg5 mi
11:50 AM59 °FPartly sunny.15 mph68%29.83 "HgN/A
11:20 AM59 °FPartly sunny.15 mph68%29.83 "HgN/A
10:50 AM59 °FBroken clouds.16 mph68%29.83 "HgN/A
10:20 AM59 °FBroken clouds.17 mph63%29.83 "HgN/A
9:50 AM59 °FPartly sunny.18 mph63%29.83 "HgN/A
9:20 AM57 °FBroken clouds.16 mph63%29.83 "HgN/A
8:50 AM55 °FPassing clouds.13 mph63%29.86 "HgN/A
8:20 AM55 °FPassing clouds.13 mph63%29.86 "HgN/A
7:50 AM54 °FPassing clouds.10 mph63%29.86 "HgN/A
7:20 AM54 °FPartly sunny.10 mph63%29.86 "HgN/A
6:50 AM54 °FSunny.10 mph63%29.86 "Hg10 mi
6:20 AM54 °FSunny.12 mph63%29.89 "Hg10 mi
Weather by CustomWeather, © 2015

See weather overviewHow to use our weather pages